Wind_Speed
6 13 16 15 14 11 11 20 24 16 11 13 17 18 17 16 17 19 19 19 20 19 17 20 21 21 24 26 25 26 26 25 26 28 26 24 24 28 28 26 31 35 34 34 34 34 34 33 31 30 29 28 28 28 28 28 27 27 26 26 26 27 28 29 28 23 18 17 17 18 21 22 21 21 21 22 23 23 23 23 22 21 21 23 25
5 9 13 14 13 11 9 15 20 16 7 8 12 14 15 17 18 18 18 19 20 19 19 22 24 24 26 26 24 25 25 25 29 30 29 27 26 28 28 25 28 32 32 32 33 33 33 33 32 30 29 29 28 27 28 29 28 28 27 27 27 28 29 28 27 21 15 14 10 8 13 18 21 22 22 23 24 25 25 25 26 24 23 24 25
3 5 9 13 13 11 8 9 12 14 10 3 6 10 13 18 19 18 18 17 17 17 18 22 28 29 27 24 22 24 25 25 28 29 28 27 28 31 31 27 29 32 31 31 34 33 32 33 32 31 30 30 29 28 28 29 29 29 29 29 28 27 27 26 26 23 18 13 6 3 4 5 9 16 21 25 26 27 28 28 28 29 28 27 26
4 4 6 10 12 11 10 8 9 11 14 8 3 5 9 12 13 11 12 12 12 11 11 15 20 21 20 21 22 24 26 26 26 26 26 25 26 30 32 30 31 33 31 31 34 34 33 34 34 33 32 32 32 30 29 30 31 30 31 31 29 25 23 23 25 26 24 16 6 2 2 1 3 6 12 21 25 26 29 31 31 32 32 31 31
5 5 4 6 9 9 8 7 6 8 10 10 7 5 6 8 8 9 10 10 11 10 8 9 11 13 15 18 20 22 24 26 25 22 23 24 25 29 31 30 32 32 30 31 33 33 34 34 33 35 35 33 32 32 31 32 32 31 32 32 31 28 24 21 22 24 28 27 16 7 3 2 4 3 3 11 19 24 29 32 33 34 34 34 34
5 5 4 4 7 7 6 4 3 3 4 4 4 4 4 6 7 9 11 12 13 14 14 12 12 13 15 17 19 20 20 23 22 19 18 18 21 26 30 31 30 28 28 31 32 32 32 31 30 33 34 31 30 31 32 33 32 32 32 31 31 32 26 20 20 24 27 31 28 20 13 6 3 4 3 4 8 16 24 29 32 34 35 34 35
5 5 5 5 6 5 3 1 2 2 3 5 5 3 4 5 7 9 12 14 16 16 16 15 16 17 18 19 19 20 21 23 21 18 16 17 18 20 22 24 23 21 22 27 30 31 30 28 27 28 28 28 28 30 31 33 33 32 32 32 32 32 27 24 25 25 25 28 31 31 26 18 9 5 4 2 3 6 14 21 26 29 30 32 34
6 5 5 6 7 6 4 2 1 1 4 6 8 9 9 9 10 12 14 16 17 18 18 18 18 19 19 20 20 20 22 24 23 20 18 18 17 18 18 19 20 19 20 21 23 27 28 26 25 25 25 25 24 25 27 30 33 32 31 31 32 31 30 32 30 26 25 26 29 31 31 28 24 17 11 6 3 2 6 11 18 23 25 28 32
7 7 6 8 10 9 7 4 2 1 1 5 7 8 10 11 11 13 14 15 17 18 20 19 19 20 20 20 21 22 22 23 23 22 20 17 14 17 18 19 19 19 20 20 17 20 24 24 24 24 24 24 23 23 25 28 32 33 32 31 32 31 33 34 30 28 29 28 27 28 28 28 28 26 21 14 7 5 5 4 9 15 18 25 30
5 6 8 10 12 10 7 4 2 2 1 4 5 5 7 9 11 12 13 14 15 16 17 18 18 20 22 23 23 24 24 23 23 23 23 20 17 18 18 16 16 16 18 18 16 17 19 20 22 23 26 26 25 26 28 30 32 33 33 33 32 32 34 35 31 30 30 29 27 25 24 23 20 19 20 18 12 8 7 5 8 10 11 19 27
5 5 6 8 9 8 6 5 3 3 4 5 6 6 7 9 11 13 13 15 16 18 19 19 20 20 23 26 27 27 26 22 21 23 24 23 20 19 18 16 17 19 17 15 17 19 18 18 20 22 26 28 28 30 32 33 34 34 33 32 32 33 34 34 33 32 29 28 28 26 26 25 21 18 20 21 15 10 7 6 10 14 13 17 23
5 5 5 6 8 7 6 4 4 6 7 7 6 6 7 8 10 11 13 15 16 18 19 20 21 20 21 24 25 26 26 23 23 26 25 25 24 21 17 15 18 22 22 21 21 20 20 21 23 26 29 31 33 34 34 34 35 35 33 31 31 33 33 32 32 34 32 31 30 30 29 27 25 24 25 25 22 19 14 7 10 14 12 17 24
6 5 5 5 7 6 5 4 7 9 8 7 6 6 6 6 8 10 13 14 14 16 17 17 19 19 20 21 22 23 22 21 23 25 24 24 25 22 18 16 16 19 23 25 23 21 23 27 29 30 31 34 36 35 33 33 34 35 34 32 31 32 33 32 32 34 35 35 35 34 31 27 26 26 26 25 25 25 19 11 13 14 11 14 21
6 5 5 5 6 5 4 6 10 10 7 6 6 5 4 5 7 11 14 14 14 16 15 16 17 19 20 20 20 18 15 14 15 18 20 21 21 20 19 20 19 18 18 19 20 19 22 25 27 28 30 31 33 32 30 30 32 34 36 35 35 36 37 35 35 36 37 37 36 35 33 31 32 32 30 28 26 24 21 15 14 13 13 14 16
5 5 5 6 7 6 6 9 10 8 6 6 6 5 4 5 8 10 13 14 15 16 15 15 17 18 19 18 15 12 11 11 9 9 12 13 14 12 13 16 19 17 16 18 20 20 21 24 25 28 31 30 28 26 24 24 24 25 29 31 34 38 38 36 38 39 39 38 36 35 35 35 37 37 34 32 30 27 26 24 18 10 8 10 10
5 5 5 6 8 6 7 10 9 6 5 5 6 5 5 5 7 8 11 13 15 16 15 15 16 17 18 16 13 12 12 13 10 8 8 9 10 11 13 16 20 21 22 24 25 24 26 29 29 32 35 33 31 27 24 23 22 21 23 27 31 35 35 35 39 39 38 36 35 36 37 38 41 41 38 34 32 30 29 29 25 16 10 7 6
6 6 6 7 9 7 8 9 7 4 4 5 6 5 5 5 6 8 9 12 14 16 15 15 15 16 17 16 14 14 14 15 13 11 11 12 13 15 17 19 21 22 23 24 25 27 28 29 30 32 34 33 33 31 29 28 27 26 26 26 29 32 33 33 36 37 35 35 35 34 35 38 40 40 38 36 33 32 31 31 30 26 19 10 6
6 6 7 7 8 8 9 8 5 3 3 5 6 4 4 4 6 7 9 12 13 13 13 14 15 16 16 15 15 14 14 15 15 13 13 14 15 16 16 18 18 19 20 21 23 25 26 27 29 30 30 31 31 31 30 32 32 32 31 30 30 31 33 34 35 36 36 34 34 34 34 37 38 36 36 37 35 33 32 33 34 33 27 18 11
6 6 6 5 7 11 11 8 4 4 5 5 4 3 3 4 6 7 9 11 10 10 13 16 16 15 15 15 14 14 15 14 13 13 13 14 15 15 15 16 16 17 18 20 21 23 24 26 27 28 30 32 33 32 32 33 33 35 35 34 31 30 32 36 36 36 37 35 34 33 33 35 37 36 35 36 37 35 35 34 35 34 30 27 23
6 6 4 4 9 13 12 8 6 6 5 4 2 2 2 5 7 8 10 11 9 9 14 17 15 14 14 15 15 15 16 15 13 13 14 15 15 15 15 16 16 18 20 21 22 23 25 26 26 28 31 33 35 35 35 34 32 33 34 33 31 29 30 35 37 37 38 36 35 34 34 35 35 35 35 37 40 40 39 37 36 35 31 28 26
5 5 5 6 10 13 12 10 8 6 4 3 1 1 3 5 7 8 11 11 9 10 14 15 15 15 16 16 16 17 17 16 14 13 15 15 14 14 15 16 17 19 20 20 21 22 24 26 27 29 31 33 35 36 35 34 32 33 33 32 31 29 29 32 35 35 36 37 36 35 35 35 35 35 36 37 41 43 42 39 36 35 32 27 23
5 5 5 6 10 13 13 10 8 6 4 3 1 0 2 5 6 8 10 10 9 11 14 15 15 16 17 17 16 16 17 17 15 14 14 14 13 13 13 15 17 17 17 17 18 19 21 23 25 27 30 31 33 35 36 34 31 31 32 31 29 28 28 31 33 32 32 34 35 35 36 37 36 36 37 38 41 43 41 39 38 34 31 28 26
6 5 5 8 11 13 11 9 7 5 4 2 1 1 2 4 5 7 10 9 8 10 13 14 15 16 17 16 16 15 15 15 14 13 14 14 15 14 13 14 15 15 14 15 17 18 20 21 22 25 28 29 31 34 35 33 30 29 29 29 27 26 26 29 32 31 30 31 32 33 35 38 37 36 38 40 42 43 42 39 38 35 31 30 29
6 5 5 8 10 11 9 7 6 5 3 2 2 1 2 3 4 7 9 8 7 10 12 13 15 16 15 16 16 16 15 14 13 13 15 17 17 16 14 14 13 13 15 16 18 19 20 22 23 24 25 26 28 30 31 31 30 29 28 27 25 25 24 25 27 28 29 30 31 33 36 38 37 37 38 40 41 42 42 40 38 35 32 30 28
5 5 5 6 7 8 6 3 4 5 3 2 2 1 2 3 5 8 9 7 6 9 11 13 15 16 15 16 16 17 16 14 12 12 14 18 19 17 14 13 12 14 16 18 19 20 21 23 23 23 24 24 25 26 28 29 28 25 25 25 24 25 26 27 28 28 29 29 32 36 38 38 37 36 38 39 40 42 42 40 38 36 32 29 26
7 6 5 5 5 4 3 4 4 4 2 3 3 2 3 4 6 7 8 6 5 8 11 13 15 16 15 15 16 17 18 16 14 13 14 17 19 18 15 13 13 15 18 20 20 21 22 23 22 22 24 23 22 22 23 24 23 22 23 25 26 28 29 30 32 33 33 32 33 36 38 39 39 40 40 39 39 41 42 40 38 36 32 27 24
6 5 4 4 3 3 5 6 4 4 4 4 3 3 3 5 6 7 8 6 5 8 12 13 14 16 15 14 14 16 18 16 14 14 14 15 18 19 18 16 15 16 19 21 21 22 22 22 21 20 20 19 18 17 19 21 22 23 25 27 28 29 31 33 34 35 36 35 35 37 38 39 41 43 44 42 41 42 41 40 40 38 35 30 26
5 5 4 5 4 4 6 6 6 6 5 4 3 3 4 5 5 6 7 6 5 9 12 12 13 15 15 13 13 14 15 14 13 13 14 15 17 18 19 18 17 18 20 22 22 22 22 22 21 18 16 16 16 17 21 24 26 26 25 25 26 28 31 33 36 37 37 36 37 38 40 41 42 43 45 45 45 43 40 39 39 38 35 32 30
5 5 5 6 5 5 6 7 7 5 4 3 3 2 3 4 5 6 6 5 7 10 11 11 13 14 13 13 12 13 13 12 13 15 16 16 18 19 19 19 19 19 21 20 20 21 22 22 21 18 16 15 15 16 17 18 20 23 24 25 27 29 31 32 34 36 37 36 37 38 40 42 42 43 45 47 47 45 41 39 38 36 34 33 31
6 7 7 7 6 7 8 9 6 4 3 3 2 1 1 4 6 5 4 6 8 10 10 11 13 13 12 12 12 12 13 13 14 17 18 17 19 20 20 20 21 21 21 20 20 21 21 21 21 19 18 16 14 15 15 15 19 22 22 24 26 28 30 31 32 33 34 34 35 37 39 42 44 43 43 45 46 46 44 43 41 39 37 34 31
7 8 8 7 7 7 9 9 7 5 4 2 1 1 1 4 6 5 5 6 8 10 11 12 13 12 10 11 12 12 13 15 16 18 18 18 20 21 19 19 21 22 22 21 21 21 20 19 19 20 19 16 14 17 20 20 23 23 20 20 24 26 27 29 29 29 32 32 33 35 37 40 41 40 39 40 42 44 44 44 43 41 40 38 35
9 9 8 7 6 6 8 9 8 7 5 2 2 2 3 5 6 7 6 7 8 9 11 13 12 10 9 11 12 13 14 16 16 17 18 18 20 20 20 20 21 21 22 22 21 20 18 18 19 21 20 17 17 22 25 24 24 24 22 21 22 23 23 25 26 26 29 30 31 33 34 35 37 36 35 35 37 38 39 40 39 38 38 37 36
9 9 8 7 7 9 11 10 9 7 5 4 4 4 5 6 6 7 6 6 8 9 10 11 10 9 9 10 12 14 15 16 16 17 18 19 19 20 22 22 22 21 21 21 20 19 17 16 18 21 21 19 21 26 26 26 28 26 22 21 21 20 20 20 21 22 25 26 27 28 28 29 32 33 32 32 32 32 32 33 33 32 33 33 33
8 8 7 7 9 12 12 10 9 8 6 5 5 5 6 7 7 6 6 7 7 8 9 10 9 8 9 11 13 15 16 17 17 17 18 19 19 21 22 22 22 22 21 19 19 18 16 15 17 18 20 20 22 26 27 27 30 28 23 20 19 17 16 15 15 17 21 25 26 27 27 27 29 31 31 31 31 30 29 29 30 30 32 32 33
7 7 7 9 12 13 13 11 10 9 7 6 7 7 7 8 8 8 8 8 8 8 10 11 10 11 12 12 14 16 17 19 19 18 18 19 20 21 23 22 21 21 19 16 16 16 14 14 15 16 18 20 21 26 29 28 30 29 22 18 16 12 10 9 7 9 15 21 24 26 27 27 27 28 29 30 30 28 27 28 28 30 31 31 32
9 10 10 13 15 15 14 13 11 10 9 9 9 9 8 9 10 10 10 9 9 10 12 12 11 13 14 15 15 16 19 21 21 19 19 20 20 20 21 21 20 20 17 12 12 13 12 13 14 14 17 20 21 26 29 29 31 29 19 15 13 7 6 4 3 6 11 17 21 22 23 23 24 25 26 27 27 26 25 26 27 29 30 30 32
12 14 15 16 17 16 15 13 11 11 11 11 11 10 10 10 10 11 12 11 11 11 11 11 12 13 15 16 17 19 21 22 22 20 20 20 19 18 18 20 19 19 16 11 9 10 11 11 13 14 16 19 21 25 28 28 31 30 21 15 10 4 6 5 5 8 11 15 17 18 20 20 20 21 22 22 21 21 22 23 24 26 26 27 28
15 15 15 16 17 16 14 12 11 11 12 11 10 11 12 12 11 11 12 12 12 11 11 12 12 13 15 16 19 21 22 22 20 19 18 18 17 16 17 18 18 19 17 12 8 9 10 10 12 14 14 17 20 23 25 26 29 32 28 22 17 16 15 13 12 11 12 15 17 17 18 17 16 15 17 18 18 19 20 20 20 20 21 20 21
17 16 16 17 18 15 13 11 10 10 11 12 12 12 13 14 13 11 11 12 12 11 11 11 11 12 13 15 18 21 20 18 16 16 15 15 16 16 16 18 19 20 19 12 8 8 9 10 12 13 12 14 18 20 22 24 26 30 31 27 23 22 20 19 21 20 18 19 21 19 18 18 17 15 15 16 15 15 16 17 18 19 18 16 17
14 15 16 17 17 14 12 12 12 11 11 12 12 13 14 14 12 10 10 12 12 12 12 11 10 11 13 14 16 17 15 13 13 14 14 14 15 17 17 19 21 19 16 13 8 8 9 10 10 11 11 12 15 18 19 21 23 25 28 29 28 25 22 20 23 26 26 27 27 25 23 20 18 16 14 13 11 10 11 13 15 16 15 13 11
15 16 16 17 15 13 14 14 14 13 11 11 12 13 13 13 11 11 12 12 12 12 13 12 11 11 12 12 12 12 12 10 11 12 13 13 15 18 19 20 20 17 14 14 10 6 8 11 10 9 11 10 11 14 16 18 20 22 24 26 26 25 22 22 25 27 28 29 28 26 24 20 17 16 15 14 12 9 9 9 10 11 12 10 9
15 16 16 15 13 12 14 15 15 13 12 11 12 13 14 13 13 13 13 13 12 13 12 10 10 10 11 10 9 11 12 11 11 12 13 15 16 18 20 19 16 14 13 13 12 9 7 9 9 7 9 10 9 11 13 15 16 18 19 20 21 21 20 22 25 26 26 27 26 25 23 21 20 19 17 16 15 13 12 12 12 11 10 8 9
15 16 16 15 13 13 14 16 15 13 12 12 14 15 14 13 13 12 12 12 13 13 12 11 11 11 9 8 9 10 12 12 12 12 13 15 15 16 18 15 11 11 12 12 11 11 11 11 9 6 6 9 9 9 11 12 13 15 15 16 17 18 18 20 23 23 22 22 22 21 21 21 21 20 19 18 17 15 14 13 12 10 7 4 5
17 18 17 16 15 16 16 16 15 13 13 14 14 14 14 13 12 11 10 10 12 13 12 11 11 10 8 8 10 10 11 11 10 9 10 12 13 14 16 14 10 10 11 11 11 11 11 12 10 5 4 6 8 8 9 10 11 13 14 14 14 15 15 16 18 18 17 17 17 17 17 17 18 18 17 17 16 15 14 13 11 9 7 4 3
19 20 19 17 17 18 17 15 15 14 14 14 14 14 15 13 12 12 12 12 13 13 12 10 9 8 8 10 10 7 7 8 8 8 9 11 12 13 14 14 14 12 10 10 11 10 9 9 9 7 5 5 5 6 7 9 10 12 13 13 12 11 11 12 13 12 11 11 13 14 14 14 15 16 15 14 13 12 11 11 10 9 9 7 5
18 18 18 18 18 18 17 16 15 15 14 14 14 14 15 15 14 13 14 14 12 10 9 9 8 8 9 8 5 2 3 6 8 8 10 11 12 14 14 16 17 15 12 12 12 11 8 8 8 8 7 6 5 6 6 7 8 10 11 12 12 11 10 10 10 10 8 7 7 9 9 9 10 12 12 12 12 10 9 9 8 8 7 6 4
15 16 18 18 17 17 17 17 16 14 13 13 13 13 14 15 13 11 13 15 12 7 8 8 7 6 6 3 2 1 2 6 8 9 10 12 13 13 14 16 18 18 16 16 15 13 10 8 8 10 8 7 6 7 8 7 7 7 9 10 11 11 10 9 8 8 7 6 5 5 6 6 7 8 9 10 9 8 8 7 7 6 5 3 3
15 16 18 19 18 18 17 16 14 13 12 11 12 11 12 12 9 8 11 11 6 6 9 9 5 4 2 2 1 2 3 6 8 9 12 13 12 12 14 15 17 19 19 18 17 16 13 10 9 10 8 7 7 7 7 8 7 7 8 8 9 9 9 8 8 8 7 6 5 4 5 5 6 7 8 8 8 7 6 6 6 6 6 4 2
16 18 20 21 21 20 17 14 14 14 12 10 10 10 11 8 4 5 7 3 3 7 10 9 5 4 2 1 1 2 3 6 9 11 12 13 11 11 13 14 16 18 20 20 19 18 15 12 11 10 8 8 9 8 7 7 7 7 8 8 8 8 8 8 7 7 7 6 6 6 6 7 7 8 8 8 7 5 5 5 5 6 6 5 2
17 18 20 21 21 18 16 14 16 15 12 10 10 10 8 6 4 4 4 4 5 6 9 10 8 7 4 2 2 2 4 7 10 11 12 13 12 12 13 13 14 17 19 19 19 19 16 14 13 12 11 10 10 9 8 7 6 7 7 7 7 8 8 7 6 5 6 7 7 8 8 8 8 9 10 10 9 8 7 7 7 6 5 4 4
17 18 18 19 18 16 15 16 17 16 13 12 12 9 8 8 7 5 5 6 5 5 7 8 8 7 5 3 4 4 5 8 10 11 12 12 14 17 17 14 13 15 17 17 18 19 19 16 13 14 14 12 11 10 9 8 8 7 7 7 8 7 7 7 6 6 6 7 8 9 9 10 10 11 12 13 13 13 12 11 10 9 7 7 7
Wind_Direction
78 84 87 94 95 93 110 117 119 129 150 177 199 217 227 225 223 224 226 227 228 230 238 247 250 251 254 256 261 268 271 271 266 260 254 249 239 229 233 240 235 231 231 232 236 237 237 236 234 235 238 236 234 233 233 232 231 233 234 235 237 237 238 242 245 247 249 252 259 259 256 254 252 253 250 243 238 233 227 227 230 230 228 226 227
67 80 84 88 92 90 94 112 123 132 153 205 221 234 243 240 240 243 244 241 238 242 250 251 253 259 262 266 273 276 274 271 268 266 263 262 252 236 232 230 224 226 228 230 234 235 235 236 237 234 233 234 233 233 234 233 231 230 229 229 232 234 236 241 241 235 231 236 248 272 269 261 256 255 254 249 243 238 234 232 232 232 232 230 230
54 69 80 85 90 95 93 94 112 127 138 199 246 245 248 242 244 254 253 249 252 256 259 253 249 253 262 275 282 278 274 271 272 276 276 271 263 250 240 227 218 221 223 226 232 235 234 235 236 233 231 234 235 231 231 232 232 230 229 228 229 231 235 239 238 231 222 218 225 260 271 274 267 256 251 249 244 240 238 237 236 236 235 234 234
75 65 69 80 85 87 85 77 78 108 133 151 202 247 264 253 253 276 274 273 279 265 256 252 251 259 276 292 294 286 282 278 276 275 273 273 264 250 242 233 223 220 221 226 232 233 232 234 236 235 235 238 238 232 230 233 235 234 233 231 227 224 228 232 234 231 222 212 198 206 199 160 272 253 245 247 244 241 239 237 238 239 238 237 237
107 95 82 81 83 81 74 71 58 70 117 150 178 214 270 264 262 298 304 301 305 297 293 283 279 289 294 297 296 291 284 279 274 265 259 260 248 235 232 228 222 221 223 228 231 231 232 235 237 236 236 236 236 236 235 236 237 238 236 231 226 223 224 224 227 227 225 222 213 194 170 183 240 230 236 254 246 240 241 240 239 240 241 240 240
124 125 126 92 79 84 73 69 85 60 67 112 156 199 275 286 275 292 299 302 309 312 315 311 304 304 301 300 299 294 288 283 279 267 253 247 236 229 228 225 224 227 229 231 235 235 233 233 232 232 233 232 233 236 238 237 238 240 238 231 227 227 223 217 221 223 224 226 222 218 218 212 202 185 186 269 256 244 243 242 240 241 241 241 242
131 130 126 115 104 109 98 56 109 87 34 26 15 355 339 322 301 300 305 310 313 313 311 308 304 305 304 301 299 296 292 290 286 276 268 266 259 249 241 235 232 226 222 227 234 236 232 229 230 232 234 235 235 236 239 241 242 243 240 235 232 228 218 214 221 221 218 222 223 223 225 225 224 212 201 239 271 257 247 243 243 242 241 242 243
139 141 137 143 154 163 175 196 197 32 29 15 1 356 347 334 321 311 307 307 307 304 300 294 289 289 290 288 287 288 290 290 288 283 280 278 269 261 256 252 241 222 215 222 225 230 232 234 237 236 237 240 240 241 244 248 249 245 241 237 233 226 218 218 222 218 211 216 220 221 225 227 231 239 249 249 218 253 267 253 248 246 244 245 244
151 150 159 167 173 180 190 186 181 215 27 17 1 353 346 343 336 321 312 306 305 303 296 289 286 287 287 283 279 281 284 283 283 284 284 282 275 268 261 254 246 232 229 229 220 223 233 239 241 238 239 241 243 245 247 249 249 246 241 237 232 226 222 220 220 217 214 215 217 220 226 229 230 239 250 254 235 231 256 259 248 245 245 246 244
156 154 171 179 181 184 190 180 158 185 87 27 18 11 5 1 351 341 338 332 328 326 314 304 303 303 300 293 286 284 284 281 279 281 285 286 284 279 270 256 246 239 238 234 227 231 239 244 245 245 247 248 248 249 248 248 249 247 244 241 234 229 225 220 219 219 217 217 219 219 224 227 226 233 241 241 236 232 241 253 249 240 240 246 244
157 157 167 165 170 174 169 157 118 93 77 60 59 38 14 1 350 344 346 344 340 340 335 327 322 316 309 303 295 290 289 291 287 283 285 287 283 277 272 260 248 246 248 244 240 242 241 242 247 250 252 253 256 259 259 256 253 248 245 241 237 233 229 224 222 223 222 222 223 220 221 224 220 220 224 225 225 226 232 251 251 244 244 248 249
150 151 143 123 136 141 129 123 91 87 86 73 58 29 9 4 356 347 344 341 339 339 338 335 332 326 321 315 305 294 289 292 292 287 287 288 286 283 273 257 241 239 244 243 242 243 240 242 248 253 255 258 261 264 265 262 256 251 247 244 241 235 231 229 226 228 227 225 225 223 224 227 226 227 227 223 223 227 228 236 243 241 244 250 252
135 137 136 125 139 131 106 109 104 100 91 70 55 39 26 14 1 350 344 342 343 345 341 339 340 338 333 326 314 301 290 291 294 292 289 285 286 289 284 269 246 241 248 247 246 250 253 256 257 258 263 267 269 268 265 262 257 254 252 250 247 242 238 234 229 232 233 229 227 225 223 226 231 237 238 232 228 229 230 237 245 239 239 253 255
132 136 143 152 159 145 121 123 116 108 94 76 75 68 47 20 3 351 344 343 346 350 346 343 345 342 337 330 319 310 301 300 301 297 291 283 284 292 294 286 273 267 268 264 261 262 264 266 266 268 272 273 273 268 264 264 259 256 256 255 253 251 246 238 235 238 237 233 229 226 223 224 230 237 241 240 234 228 226 228 239 242 239 248 256
140 147 160 172 173 161 135 126 120 112 96 87 93 88 63 31 12 353 342 341 344 348 346 344 346 345 342 334 322 316 309 301 301 312 310 293 284 290 294 290 284 279 279 281 280 275 275 277 274 273 274 273 271 266 262 264 259 256 256 254 254 253 247 242 242 239 233 229 228 226 225 226 231 236 238 239 237 232 229 228 228 230 240 244 249
160 165 182 189 187 174 138 127 123 112 96 99 109 98 71 43 15 354 346 343 342 342 339 339 345 349 351 344 327 323 320 308 303 309 315 307 292 284 282 286 287 286 285 285 283 279 281 281 274 271 272 271 269 266 264 263 259 258 257 254 254 254 247 240 237 232 228 227 226 226 226 228 232 234 235 237 238 236 236 235 230 221 223 238 238
172 181 189 194 198 182 142 132 129 117 114 125 119 96 73 52 12 356 353 345 341 342 340 341 344 346 351 350 338 335 333 328 324 315 308 308 302 293 289 286 286 289 290 288 285 283 283 282 276 271 270 269 266 265 265 264 261 260 257 254 253 250 244 236 231 229 228 227 225 225 225 228 231 232 233 235 237 240 240 240 237 229 222 225 241
179 193 190 190 192 170 143 137 135 127 140 137 114 89 76 49 5 356 356 348 347 353 355 351 346 344 346 348 345 344 342 338 334 328 321 315 310 304 299 295 293 296 297 294 293 292 289 283 278 273 269 269 269 267 266 264 262 261 257 254 252 247 242 238 235 233 231 228 227 227 227 229 231 230 231 233 236 240 242 241 240 236 227 219 225
183 197 198 187 167 155 148 146 151 156 148 128 101 72 57 21 355 348 348 350 355 0 358 350 346 348 349 350 350 347 345 340 332 328 323 317 315 312 308 306 306 306 305 302 300 298 293 286 279 273 269 269 271 269 266 264 263 261 256 252 251 245 237 238 240 237 233 229 228 229 232 233 232 229 230 232 235 240 244 242 239 238 233 224 225
187 187 178 158 151 154 157 161 167 163 146 121 89 46 18 360 347 339 342 351 0 1 355 348 346 351 352 352 351 347 347 344 337 331 325 322 321 318 317 316 315 316 315 311 307 303 299 294 286 278 272 271 271 268 264 262 259 256 251 247 248 245 236 236 240 237 232 229 228 230 236 238 233 228 228 231 234 238 242 242 239 238 238 233 229
189 180 160 152 157 163 168 169 166 159 148 127 103 33 1 349 341 337 341 349 358 1 356 348 346 348 348 349 349 350 352 349 345 338 330 326 323 321 322 321 319 321 320 315 312 309 306 301 293 284 276 273 272 269 265 260 256 253 250 248 250 248 237 232 235 235 230 227 228 229 235 240 236 229 228 230 233 236 238 239 239 238 238 235 227
188 178 165 164 169 174 173 167 164 161 153 142 137 337 345 346 339 335 339 345 353 359 357 350 346 346 346 346 347 351 355 353 350 347 341 334 328 325 324 322 321 321 318 316 315 314 313 308 299 290 281 272 268 267 265 260 255 254 254 252 251 245 236 232 235 237 232 227 227 228 232 238 237 232 230 231 231 233 234 235 236 235 234 231 224
185 176 173 176 178 177 171 165 165 160 148 151 187 242 347 351 341 336 339 341 346 355 358 353 347 347 347 345 343 347 353 353 351 351 351 347 340 334 329 324 320 318 317 319 318 317 317 314 307 300 292 280 269 264 263 259 253 253 255 254 250 242 237 237 238 240 238 230 226 227 230 235 236 233 231 230 230 231 231 232 233 231 230 229 224
187 184 178 178 179 177 173 168 161 152 147 171 198 211 12 4 347 342 340 333 338 355 1 357 350 347 347 347 346 347 348 347 346 349 350 347 342 338 332 324 317 317 321 323 322 322 322 320 315 307 301 290 274 267 266 261 255 252 252 253 251 245 242 241 239 239 238 233 228 228 231 233 232 230 231 230 228 229 229 230 230 229 227 229 227
194 189 175 176 181 183 179 160 147 152 154 160 160 114 34 16 351 343 338 326 335 356 359 354 350 347 346 348 350 348 345 341 337 341 342 339 337 335 328 319 312 314 321 324 325 326 327 326 321 314 306 291 271 263 263 262 258 253 251 251 252 252 252 251 249 246 243 239 233 229 229 228 225 225 228 229 227 227 227 227 227 227 225 225 225
193 186 178 184 192 182 142 108 137 162 148 132 122 80 33 2 344 342 340 329 333 352 355 351 347 347 345 344 345 345 343 337 329 330 333 331 332 333 327 316 308 311 317 322 326 328 329 328 326 323 318 303 278 260 255 256 257 258 259 260 260 260 260 258 255 252 248 244 237 230 227 225 222 222 225 226 225 225 225 223 223 224 222 220 221
192 178 171 181 177 141 115 114 145 161 140 122 95 48 13 352 342 341 344 339 329 341 347 344 342 345 346 341 339 340 341 337 331 329 331 330 331 334 332 323 312 309 313 316 323 329 334 335 332 329 330 324 304 278 257 251 257 263 266 267 267 266 264 260 256 252 247 243 238 232 228 224 221 220 221 221 220 220 220 220 220 220 221 221 222
162 155 164 173 166 149 136 141 154 151 136 114 71 30 6 354 342 338 342 341 333 336 338 337 337 342 344 340 336 337 340 342 339 335 330 328 328 331 331 325 315 311 312 314 322 331 337 340 339 335 334 333 320 295 269 255 259 266 266 267 270 269 267 264 259 253 247 242 237 232 227 224 221 218 217 215 214 214 214 215 218 218 218 219 222
142 158 174 176 176 177 166 162 160 147 128 106 71 38 12 351 338 334 332 329 331 334 333 330 335 340 341 338 334 332 338 345 348 343 334 325 323 325 326 324 321 317 314 314 323 332 337 340 342 343 341 337 329 312 289 274 278 276 266 266 274 274 273 272 265 255 247 241 236 230 226 223 221 219 217 216 215 214 213 212 214 215 214 215 218
160 174 188 189 189 185 171 163 159 148 131 107 75 60 12 349 344 331 312 312 321 328 330 326 330 338 340 336 331 325 329 340 346 346 342 333 327 324 323 324 324 321 317 317 323 329 335 341 343 344 345 343 339 332 327 329 324 303 274 266 275 279 278 277 269 254 245 240 235 230 225 222 221 219 217 217 217 215 215 215 215 214 213 211 211
185 191 201 199 187 177 166 159 155 156 147 122 118 186 301 337 339 322 306 311 311 316 326 323 323 336 341 337 332 323 323 331 337 340 343 341 334 329 326 324 324 322 319 320 321 324 332 342 345 345 344 342 347 351 350 348 339 325 303 282 278 279 281 283 275 254 241 237 233 229 224 219 217 215 213 212 214 214 214 215 216 218 217 215 213
195 200 202 191 177 168 162 158 161 168 168 165 188 215 282 311 323 320 309 308 306 311 323 321 319 329 339 340 336 327 324 329 332 336 339 338 334 331 329 325 323 322 320 319 320 322 330 341 346 349 349 349 358 0 356 350 341 333 324 307 291 283 284 291 285 260 239 232 228 223 217 212 208 206 204 205 207 209 211 212 214 217 219 220 221
197 201 196 182 171 163 162 167 177 186 191 193 201 237 276 284 303 315 305 302 309 317 325 322 315 319 335 346 342 334 332 332 332 335 337 336 333 331 330 328 324 321 319 318 320 322 328 341 350 354 357 0 2 358 354 352 346 338 329 319 306 294 288 292 289 264 236 223 217 208 199 197 198 198 197 197 199 201 204 209 211 213 218 220 223
199 198 188 175 168 166 170 180 191 195 198 205 221 249 269 268 274 288 293 300 309 319 326 322 315 321 336 344 342 338 337 335 334 335 335 336 334 330 330 329 326 323 319 315 318 321 327 341 351 357 2 4 2 359 358 358 354 348 337 324 311 297 289 289 283 258 228 211 203 193 184 183 187 191 194 198 202 203 205 209 211 213 217 219 219
197 191 181 172 168 170 177 186 194 199 203 216 232 245 257 259 257 264 277 287 294 307 315 312 315 328 337 340 340 338 335 333 333 333 333 335 333 330 332 334 332 330 324 313 314 321 327 341 352 358 3 4 4 4 5 3 359 354 345 330 317 295 278 276 260 227 206 196 189 184 182 180 184 191 197 201 207 212 214 215 215 215 217 218 218
186 177 176 177 177 180 185 188 197 207 215 229 240 242 245 252 253 257 265 273 283 299 308 309 314 326 332 334 333 331 329 330 330 328 328 333 336 335 339 343 342 339 332 314 313 325 332 344 354 359 3 4 5 8 10 10 6 3 355 341 330 291 236 224 202 179 171 175 178 177 177 179 185 195 202 205 209 214 214 212 212 215 217 218 218
179 176 178 182 184 186 187 191 203 216 227 237 241 238 236 242 252 256 259 265 275 288 299 305 310 320 327 329 326 325 326 327 327 326 326 332 338 339 344 349 351 348 337 314 305 327 337 349 358 0 2 4 6 10 14 16 15 16 17 13 16 74 135 129 150 167 163 164 169 172 174 178 185 193 198 200 202 204 200 197 199 202 204 207 212
175 177 178 182 186 186 187 195 209 224 236 240 238 234 233 237 248 255 257 263 269 280 296 303 306 313 323 328 327 326 328 330 330 330 331 336 341 342 344 351 356 354 344 321 295 317 338 351 2 4 4 3 6 13 18 19 21 26 26 24 41 75 89 87 95 116 137 145 150 158 163 163 163 170 179 183 186 189 187 184 183 182 182 187 197
178 180 182 183 185 185 186 195 211 225 233 233 230 231 233 239 248 256 261 263 263 274 292 299 300 307 318 326 328 328 333 338 340 339 338 340 344 345 346 352 355 354 353 338 298 299 332 350 0 7 8 5 6 13 19 21 23 29 30 27 36 56 66 70 74 76 81 97 110 121 128 128 124 128 142 155 164 173 178 176 174 171 169 173 186
182 186 188 184 181 181 183 192 209 221 223 222 222 225 230 238 247 252 255 259 265 275 284 288 296 307 316 321 326 333 341 345 345 344 341 342 345 346 346 349 350 353 5 7 330 297 315 336 352 7 8 2 5 11 17 22 23 25 30 34 38 42 47 58 68 68 66 71 80 86 92 98 102 103 110 121 132 151 166 170 169 164 156 155 168
183 185 183 178 180 186 191 200 213 222 222 221 222 225 232 240 244 245 249 259 272 278 278 285 299 308 312 318 329 344 348 343 342 345 344 342 344 344 341 341 342 349 10 24 16 336 315 321 334 1 6 357 356 4 12 20 24 24 29 37 43 45 46 55 63 66 65 66 68 69 72 79 87 88 88 91 93 104 129 138 138 138 137 140 152
177 177 175 174 179 188 198 208 216 218 218 220 224 231 241 246 245 250 259 268 276 276 272 283 300 302 306 321 338 349 351 347 343 344 343 342 343 345 345 342 340 347 1 15 27 29 5 343 337 350 5 2 353 354 3 13 22 27 30 36 46 52 55 61 65 65 65 66 67 65 64 67 71 72 72 73 73 75 89 98 98 102 110 121 137
168 173 178 180 181 189 201 209 210 208 211 218 225 234 243 245 249 265 279 274 270 272 270 278 292 296 307 331 339 340 347 348 343 340 345 350 350 353 357 356 349 348 349 357 16 27 25 18 7 349 356 6 0 354 358 7 17 24 26 30 41 50 56 65 72 74 73 71 69 66 63 62 63 63 63 62 62 63 70 77 80 85 92 107 136
173 181 187 187 187 192 201 207 207 208 215 223 231 237 242 247 261 287 300 285 276 276 272 274 286 295 314 338 333 330 342 351 353 356 2 6 4 2 4 4 354 342 341 350 5 13 14 17 13 350 336 0 4 2 7 16 20 21 21 24 34 45 52 61 73 80 78 71 64 60 58 59 60 59 56 56 57 57 59 60 62 64 61 55 49
181 186 189 193 196 196 199 205 208 212 221 230 237 241 245 255 275 297 306 298 290 283 270 263 274 295 321 336 336 337 353 4 13 16 11 7 3 359 360 360 352 342 334 340 352 0 5 5 0 342 321 331 352 357 5 21 27 23 19 20 26 36 44 51 62 72 72 66 60 56 55 58 58 55 51 48 49 52 55 55 55 56 60 63 55
180 182 190 199 200 196 197 202 211 223 234 240 243 246 250 262 280 300 314 312 298 278 255 244 258 298 328 345 356 17 19 11 14 13 5 359 355 351 353 358 358 354 341 330 334 343 350 349 347 340 318 302 320 332 336 357 18 22 22 22 23 27 30 34 42 50 55 57 56 51 50 51 50 49 48 45 40 40 42 40 44 53 61 70 62
185 188 195 197 192 191 198 208 223 237 244 243 245 251 261 274 287 307 323 319 302 264 224 221 252 307 341 24 58 34 343 0 8 9 3 0 359 357 358 2 5 3 352 337 330 333 335 333 333 336 325 303 304 315 321 333 348 2 12 16 17 20 23 25 27 32 34 34 30 29 29 25 24 29 32 32 31 30 25 19 18 26 34 57 81
197 199 198 194 193 199 207 219 238 251 251 247 248 258 275 285 295 315 321 317 296 219 204 210 244 309 345 105 88 322 324 352 3 2 358 359 4 7 6 7 9 6 358 347 334 327 326 326 322 322 321 308 300 307 321 336 340 344 352 356 356 1 7 13 18 19 18 16 9 358 349 344 349 358 4 10 13 12 9 4 359 358 357 359 29
196 199 199 198 202 209 214 229 248 253 250 249 250 265 282 283 289 317 315 301 175 192 208 212 233 285 289 202 240 300 334 354 358 355 351 353 357 359 359 3 6 5 2 358 348 334 323 318 313 311 307 300 298 306 322 335 338 340 342 343 343 343 344 350 1 4 359 357 354 346 336 330 331 336 341 347 352 349 340 330 327 335 346 350 342
193 197 202 205 209 215 223 238 249 248 246 251 253 260 269 260 262 299 279 219 201 220 221 218 238 272 285 242 233 288 339 347 349 345 341 341 343 345 349 357 0 358 360 4 4 357 343 322 303 297 299 300 301 307 317 329 337 339 339 338 336 335 333 332 335 338 335 334 336 337 333 329 326 324 322 319 318 313 305 299 298 300 304 306 295
192 196 202 209 216 225 234 241 244 244 246 253 255 255 258 258 265 275 249 221 221 231 227 230 248 270 288 264 245 280 319 331 337 336 331 331 336 340 345 351 356 355 358 5 12 12 8 354 321 296 291 295 302 308 312 321 331 334 333 333 331 331 332 328 322 316 310 305 306 310 313 315 314 311 308 307 306 301 296 294 294 290 283 276 270
Height
805 806 807 808 809 810 812 815 815 815 815 816 817 816 814 815 817 815 813 813 814 815 816 816 816 815 811 809 808 807 808 810 812 813 814 815 815 815 816 817 818 819 821 823 824 825 825 825 825 824 824 823 823 824 825 826 827 829 830 831 831 832 834 835 836 838 838 838 838 838 838 838 839 840 841 842 842 842 841 841 842 842 843 843 843
805 806 807 808 809 809 811 813 814 814 814 812 812 812 811 811 812 812 812 813 814 814 814 815 815 814 810 807 806 806 806 807 808 810 811 811 812 813 813 814 816 817 817 818 819 820 820 820 820 821 821 820 820 821 823 824 824 826 827 828 828 829 829 831 833 835 836 836 837 837 836 835 836 836 837 838 838 838 838 839 839 840 841 841 842
807 806 807 807 808 809 810 811 813 814 813 812 810 809 809 808 809 810 811 812 813 814 814 814 814 813 811 808 806 805 805 806 806 806 806 806 807 809 810 812 813 813 813 813 814 814 814 814 815 817 818 818 818 819 820 821 821 823 824 824 825 826 827 828 830 832 833 835 837 838 836 835 835 833 833 833 834 835 835 836 837 837 838 839 840
808 807 806 806 808 809 809 810 812 813 814 813 811 810 809 808 809 809 810 811 812 813 813 813 812 811 810 807 806 805 804 804 803 803 802 801 802 803 806 809 809 809 810 809 808 808 808 809 810 812 814 815 816 816 816 817 818 819 820 821 822 823 824 825 827 829 831 833 835 836 835 837 836 832 829 830 831 832 832 833 834 834 835 837 837
809 808 807 807 808 809 810 810 811 812 814 815 814 813 811 810 810 810 810 810 811 811 811 811 810 809 808 806 806 805 803 803 802 801 800 798 798 799 801 802 803 804 805 805 805 805 805 806 807 808 810 811 812 812 812 812 813 815 816 817 819 820 821 823 825 827 828 828 830 831 833 836 834 830 829 829 827 828 828 829 830 831 832 833 834
809 808 808 808 808 809 810 811 811 812 813 815 815 814 813 812 811 811 810 809 809 808 808 808 807 807 806 805 805 804 803 801 801 801 800 799 798 799 799 798 798 800 801 803 804 804 804 804 805 806 806 807 808 808 808 809 810 810 812 813 815 816 819 821 822 823 824 825 826 826 827 829 828 828 830 829 825 824 825 826 826 827 828 829 830
809 809 809 809 809 810 810 810 811 812 813 813 814 814 814 813 812 811 810 808 807 807 806 806 806 806 805 804 804 803 802 800 800 800 799 798 798 798 798 798 799 799 799 801 803 803 803 803 803 803 804 804 804 805 805 806 806 807 808 809 810 813 816 817 817 819 822 822 822 822 822 823 824 825 828 828 826 824 822 822 823 823 825 826 826
809 810 810 810 810 810 810 810 810 811 812 812 813 813 813 812 812 811 810 808 807 806 806 806 805 805 804 803 802 802 800 799 798 798 796 797 797 796 795 797 799 799 798 798 800 801 801 801 801 800 801 801 801 802 803 803 803 804 805 806 807 809 811 811 813 816 818 818 819 819 819 820 821 822 824 825 826 824 821 820 820 821 822 822 822
808 810 810 810 810 810 810 810 811 811 812 812 812 812 812 811 811 810 809 808 807 806 805 805 805 804 803 802 801 799 798 797 796 796 795 795 796 795 794 794 796 797 798 797 798 799 799 799 798 798 798 798 799 800 800 800 801 801 801 801 802 804 806 807 810 813 814 814 815 817 818 818 818 820 822 823 823 823 822 819 818 819 819 818 819
808 809 809 810 810 810 811 811 811 811 811 811 811 812 812 811 810 809 808 807 807 806 805 804 804 803 802 801 800 798 796 796 795 794 793 793 793 793 793 795 797 798 797 797 797 797 798 797 796 796 795 795 796 797 797 797 797 797 796 797 798 799 802 803 807 810 810 810 811 814 817 817 816 818 819 820 820 821 820 817 816 817 816 815 815
809 809 809 810 810 811 811 811 811 811 811 811 810 811 811 810 810 809 808 807 805 804 803 802 802 801 800 799 798 797 795 795 794 792 791 790 789 790 792 794 796 797 797 797 797 796 796 796 794 794 793 793 793 793 794 794 794 793 793 793 794 796 798 800 803 806 807 807 808 810 813 813 813 813 814 816 817 817 817 816 814 814 814 812 811
809 810 810 810 811 811 811 810 810 810 810 810 810 810 810 810 809 808 808 807 805 804 803 802 801 800 799 797 796 794 794 793 792 790 790 789 787 787 789 792 794 796 797 797 796 795 794 793 793 792 791 790 790 790 790 791 791 791 791 791 791 792 794 797 799 801 802 803 804 805 807 809 810 810 811 813 814 813 814 813 812 812 812 809 809
809 810 810 810 811 810 810 810 810 810 809 810 810 810 809 809 809 809 808 807 806 805 804 802 801 799 798 796 794 793 792 792 790 789 788 787 786 786 787 790 793 795 794 792 791 791 790 790 790 790 789 788 787 786 786 787 787 788 788 788 789 790 792 793 795 797 798 799 800 801 803 804 807 809 810 811 811 811 811 810 810 810 810 807 807
809 810 810 810 809 809 808 809 809 809 809 809 809 809 809 809 808 808 808 807 806 805 804 803 801 799 797 795 793 793 792 791 789 787 785 785 785 785 785 785 787 789 789 788 787 787 787 787 787 787 787 786 785 783 783 783 784 786 786 786 786 788 789 790 790 792 795 795 796 798 799 800 801 804 808 809 808 808 808 808 809 809 808 806 806
809 809 809 808 808 807 808 808 808 808 808 808 808 808 808 808 808 807 807 806 805 804 803 802 801 799 796 794 793 792 791 789 787 785 784 784 784 784 783 783 783 785 785 785 785 784 784 783 783 783 782 782 782 782 781 780 781 783 784 784 784 784 785 786 787 788 790 791 792 793 795 796 797 799 803 805 804 804 804 804 806 807 808 806 804
808 808 808 807 806 806 807 807 807 807 807 807 807 806 807 807 807 807 806 805 804 803 802 801 800 798 796 794 792 791 789 788 786 785 783 783 782 781 781 782 782 782 782 782 782 781 781 780 779 779 777 776 777 778 779 778 778 779 780 781 781 781 782 783 784 784 785 786 787 788 790 791 792 794 797 798 800 800 800 801 802 803 805 806 804
807 806 805 805 804 805 805 806 806 806 806 806 805 805 805 805 806 806 805 805 803 802 800 799 798 797 795 794 792 790 789 787 785 784 783 782 781 781 781 781 781 781 780 779 779 778 778 777 776 776 774 772 772 773 774 775 776 776 777 777 777 778 779 779 780 780 779 781 782 784 786 787 788 790 791 793 795 796 796 797 798 797 800 803 803
805 804 803 803 802 803 804 804 805 805 805 805 804 804 804 804 805 805 804 804 803 801 799 798 797 796 795 793 792 791 789 787 786 784 783 782 781 781 780 780 779 779 777 777 776 775 774 774 773 774 772 770 768 768 769 770 771 772 772 772 772 773 774 775 776 775 774 776 777 778 781 782 784 786 787 788 789 791 791 793 794 793 795 798 800
804 801 801 800 800 801 802 803 804 804 804 804 803 803 803 803 803 803 803 802 802 800 798 797 796 795 794 792 791 790 788 787 785 784 783 782 781 780 779 778 776 775 774 773 772 771 771 771 771 772 770 767 765 764 764 765 766 767 767 767 767 768 769 769 770 770 770 771 771 772 775 776 778 779 780 782 784 786 787 789 790 790 791 793 795
801 800 799 798 799 800 800 802 803 803 803 802 802 802 801 801 801 801 801 800 800 799 797 796 795 793 792 791 790 788 786 785 784 782 781 780 779 778 777 775 774 772 771 769 768 767 767 767 767 768 766 763 761 760 760 761 762 762 762 763 763 764 765 764 765 765 765 766 766 767 769 770 772 774 774 776 778 780 783 785 787 787 787 789 791
799 798 798 798 799 799 799 800 801 801 801 800 800 801 800 800 800 799 799 799 798 797 796 795 793 792 791 789 788 786 784 783 782 781 779 777 776 775 774 773 771 770 768 767 765 765 764 764 763 762 760 758 755 755 756 757 758 758 758 759 759 759 759 760 760 760 761 762 762 762 764 765 767 769 769 771 773 775 779 781 783 783 783 785 788
798 797 797 798 798 799 799 799 800 799 800 800 799 799 799 799 798 798 798 797 796 795 794 793 792 791 789 787 786 785 783 781 780 779 777 776 775 774 772 771 769 769 768 766 765 764 763 762 761 759 756 753 750 749 751 752 753 753 753 754 755 754 754 755 755 756 758 759 758 759 760 761 763 764 765 766 768 771 775 777 778 779 779 781 783
796 795 796 797 797 798 798 797 798 798 799 799 799 798 798 798 798 797 797 796 795 795 793 792 791 789 788 786 785 783 782 780 779 777 776 774 773 772 771 769 768 767 766 765 764 763 761 760 758 756 753 750 748 745 745 746 747 748 749 749 751 751 751 751 750 751 754 755 756 756 757 758 759 760 760 762 765 767 770 772 772 774 775 777 779
794 794 794 795 796 796 797 796 797 798 798 798 797 797 798 797 797 797 796 796 795 794 793 791 790 788 787 785 783 782 781 779 777 776 774 773 772 770 769 768 766 765 764 763 762 761 759 757 755 753 750 747 745 743 742 742 742 743 743 744 746 747 748 747 746 747 749 751 751 752 753 754 756 757 757 759 761 763 765 767 768 770 771 773 776
793 794 794 795 795 795 795 795 796 796 797 796 796 797 797 796 797 796 795 795 794 793 792 791 789 788 786 784 783 781 779 778 776 775 773 772 771 769 767 766 765 763 762 761 760 758 756 754 752 749 747 744 742 741 741 739 739 739 739 740 741 742 742 741 741 742 743 745 746 746 747 749 752 753 753 755 757 758 759 762 763 765 767 769 771
793 793 793 793 794 794 793 794 795 795 795 796 795 796 796 795 795 795 794 794 793 792 791 790 789 787 786 784 782 780 779 777 776 774 772 771 770 769 767 765 763 762 761 760 758 756 754 752 749 746 743 741 739 738 737 737 737 737 736 736 736 736 736 736 735 735 736 738 739 739 741 743 745 746 747 750 752 754 755 757 758 760 762 765 768
792 791 793 793 793 793 792 793 794 794 795 795 794 795 794 794 794 793 793 792 792 791 789 789 788 786 785 784 782 780 778 776 775 773 772 770 769 768 765 764 762 761 760 759 757 755 752 750 747 744 741 738 736 735 734 734 734 734 733 732 731 731 731 730 729 728 729 730 730 732 734 736 738 739 741 744 746 749 750 752 753 755 757 760 763
790 791 792 793 793 792 791 792 793 793 794 793 794 794 793 793 793 792 792 791 790 789 788 787 786 785 784 782 781 780 778 776 774 773 771 770 768 767 765 763 761 760 759 758 755 753 750 747 745 742 739 736 734 733 732 731 731 730 730 728 727 726 725 724 723 721 722 722 722 723 726 729 731 733 734 737 739 742 744 746 748 750 752 754 758
790 792 792 792 792 791 791 791 791 792 792 792 793 793 792 792 792 791 791 790 789 788 787 786 784 783 782 781 780 778 777 775 774 772 770 769 767 766 763 761 760 759 758 756 755 752 749 745 743 740 738 736 733 731 730 729 729 727 726 724 722 721 719 717 715 713 713 714 714 716 718 721 724 726 728 730 733 735 738 741 743 745 747 750 753
790 791 791 790 790 789 789 789 789 790 791 791 791 791 791 791 790 790 789 788 788 787 785 784 783 782 781 779 778 777 776 775 773 771 769 768 766 765 762 760 759 758 757 755 754 751 748 745 741 739 737 734 733 731 729 728 726 724 722 720 718 715 713 711 708 705 705 705 707 708 710 713 717 720 722 724 727 730 732 735 738 740 742 745 748
790 790 789 788 788 787 787 787 788 789 789 790 790 790 790 790 789 789 788 787 787 786 784 783 782 780 779 778 777 776 775 774 772 770 768 767 765 763 761 759 758 756 755 754 752 750 747 744 741 738 735 733 732 731 729 726 723 721 718 716 713 710 707 705 701 699 698 699 701 703 705 708 711 714 717 720 722 725 728 731 734 736 737 739 742
788 787 787 786 786 786 786 786 786 787 788 788 789 789 789 789 788 787 787 786 786 785 784 782 780 780 778 776 776 774 773 772 770 769 767 766 765 763 760 759 756 755 754 752 750 749 746 743 740 737 734 732 731 729 727 724 721 717 714 711 708 705 703 700 696 694 694 695 696 699 700 703 706 710 713 716 719 722 725 728 731 732 734 735 737
784 784 783 784 784 784 784 784 785 786 786 787 787 787 787 787 786 786 785 785 784 783 783 781 779 779 777 775 774 773 772 771 769 767 766 764 763 762 759 757 755 753 752 750 748 747 745 742 739 736 734 732 730 728 725 721 717 713 710 706 703 701 699 696 693 690 691 692 693 695 697 700 703 707 710 713 716 719 723 725 728 729 731 732 733
781 781 780 781 782 782 782 783 783 784 784 785 785 785 785 785 785 784 783 783 783 782 782 780 779 778 776 774 773 771 770 769 767 766 764 763 762 760 758 756 753 751 750 748 747 745 743 741 739 736 734 732 730 727 723 719 715 710 706 703 700 698 696 694 691 689 689 690 691 693 694 697 701 705 708 711 713 717 720 722 724 725 727 728 730
778 778 778 779 779 780 781 781 782 782 782 783 783 783 783 783 783 783 782 782 781 781 780 779 778 776 775 773 771 770 769 768 766 764 762 761 760 758 756 754 752 750 749 747 746 744 743 741 739 737 735 733 731 728 723 719 714 708 704 701 698 697 695 693 691 690 689 690 690 691 693 696 700 703 706 709 712 715 717 719 721 722 723 725 727
773 774 775 776 776 777 778 779 780 780 780 781 781 781 781 781 781 781 781 780 780 780 779 778 777 776 774 772 770 769 768 766 765 763 761 760 759 757 755 753 750 748 747 746 745 744 742 741 739 737 735 733 731 728 723 719 713 707 702 699 697 695 694 694 693 692 691 691 691 692 694 696 700 702 705 707 710 713 715 717 718 719 721 723 724
769 770 772 772 774 775 775 776 777 778 778 779 779 779 779 779 779 779 779 779 779 778 778 777 776 775 773 771 769 768 766 765 764 762 760 759 757 756 754 752 749 747 746 745 744 743 742 740 739 737 735 733 731 728 724 720 714 708 703 700 698 695 694 695 695 693 693 693 693 694 695 698 700 702 705 707 709 712 713 714 715 716 718 720 721
767 769 770 771 772 772 773 774 775 776 777 777 777 778 777 777 777 776 777 777 777 777 776 776 775 774 772 770 769 767 765 763 762 761 759 758 756 755 753 751 749 747 745 744 743 743 742 740 739 737 735 733 732 729 726 722 717 712 707 704 700 697 697 697 696 695 695 694 695 696 697 699 701 703 705 707 709 711 711 712 712 714 715 717 720
766 768 768 769 770 770 771 772 773 774 775 775 776 776 775 775 775 774 775 775 775 775 775 774 773 772 771 770 768 766 764 762 761 760 758 757 755 754 752 751 749 747 745 743 743 743 742 741 739 737 735 734 733 731 728 725 720 716 712 708 704 702 701 700 699 698 697 695 696 697 698 700 702 703 704 706 708 710 711 711 712 714 715 717 721
766 767 767 768 769 769 769 770 771 772 772 773 774 774 774 774 773 773 773 772 773 773 773 772 772 770 769 768 766 765 763 761 760 759 758 757 755 753 752 750 749 748 745 743 742 742 742 741 740 738 736 735 733 732 730 727 724 721 717 712 709 707 706 704 702 701 700 699 699 700 700 702 704 704 706 707 709 711 712 713 714 715 716 718 720
765 766 766 767 767 767 767 768 769 770 770 771 772 772 772 772 771 771 771 770 771 771 771 771 770 769 768 767 765 764 762 760 760 759 757 756 755 753 752 750 749 748 746 744 743 742 742 740 739 738 737 735 734 733 731 729 727 724 720 717 715 713 711 709 707 705 704 704 703 704 706 707 707 708 709 710 711 712 713 714 715 715 716 717 718
764 764 765 765 765 765 766 766 767 768 769 769 770 770 770 770 769 769 768 769 769 770 769 769 769 768 767 765 764 763 761 760 759 758 757 756 754 753 752 750 749 748 746 745 744 742 741 740 738 738 736 735 734 733 731 730 729 727 725 722 720 718 715 714 712 711 710 710 709 710 711 711 711 711 712 712 713 714 714 715 716 716 717 718 719
762 763 764 763 764 764 764 765 765 766 767 767 768 768 768 768 768 767 767 767 767 768 768 768 767 767 766 764 763 762 760 759 759 758 757 756 755 753 752 750 749 748 747 746 744 743 741 739 737 737 736 735 734 733 731 730 729 728 727 725 723 721 719 717 716 716 717 716 716 716 715 714 714 714 714 715 715 716 717 717 718 718 719 720 721
760 762 761 762 763 763 763 764 764 764 765 766 767 767 766 766 766 765 765 765 765 766 766 766 766 765 765 764 762 761 760 759 758 757 757 756 755 754 752 751 750 748 747 745 744 743 742 740 738 736 735 734 733 732 731 730 729 728 727 726 725 723 722 720 719 719 719 719 719 719 718 717 717 717 718 718 719 719 720 720 721 721 721 722 723
758 759 760 760 761 761 762 763 763 763 764 765 765 765 765 765 764 764 764 763 763 763 764 764 764 764 763 762 761 760 760 758 757 757 756 755 754 753 752 751 749 748 746 745 743 742 741 740 738 736 735 734 733 732 731 730 729 729 728 727 726 725 724 723 722 721 721 721 721 721 721 720 720 721 721 721 722 722 722 723 724 724 724 725 726
757 758 759 759 760 761 761 762 762 762 763 763 763 764 763 763 763 763 762 761 760 760 761 762 763 763 762 761 760 760 759 758 757 756 755 754 753 752 751 750 748 747 746 744 743 742 741 739 738 736 735 734 733 732 732 730 729 729 728 727 726 725 724 724 723 723 723 723 723 723 723 723 723 723 723 724 724 725 725 725 726 727 727 728 728
757 757 758 759 759 760 760 760 760 760 761 761 762 762 762 762 762 762 761 759 758 759 759 761 762 762 761 760 759 759 759 758 756 755 754 753 753 752 751 750 748 746 745 744 742 741 740 739 737 736 735 734 733 732 732 731 730 729 728 727 726 726 725 725 724 724 724 723 724 724 724 724 724 724 725 726 726 727 727 727 727 728 729 730 730
755 756 757 758 758 758 759 759 759 759 760 760 760 760 761 761 762 761 760 758 757 758 759 760 760 761 760 759 759 759 758 757 756 755 754 753 752 751 750 749 748 746 745 743 742 740 739 738 737 736 735 733 733 732 731 731 730 729 728 727 727 726 726 726 725 725 724 724 724 724 724 724 725 725 726 726 727 728 728 728 728 728 729 729 729
754 755 756 756 756 757 757 758 758 758 759 759 759 759 760 760 760 760 759 757 757 757 758 759 759 759 759 758 758 758 757 756 755 754 753 752 751 750 749 748 747 746 745 743 741 740 739 738 737 736 735 733 732 732 731 731 730 729 729 728 727 726 726 726 726 726 725 725 725 725 725 725 725 725 726 727 727 728 728 729 729 729 729 729 729
753 754 754 754 755 755 756 757 757 757 758 758 758 758 758 758 759 759 758 757 757 757 757 758 758 758 758 757 757 757 756 755 754 753 752 751 750 750 749 747 746 745 744 743 742 740 739 738 737 736 735 733 732 732 731 731 730 730 729 728 728 727 727 726 726 726 726 726 726 725 725 725 725 726 726 727 727 728 728 729 729 729 729 729 729
752 752 753 753 754 756 757 757 756 756 757 757 757 757 757 757 758 758 758 757 757 756 757 757 756 757 756 756 756 756 755 754 753 752 751 750 749 748 748 747 746 745 743 743 741 739 738 737 736 735 734 734 733 732 731 731 730 730 730 729 729 728 727 727 727 727 727 727 726 726 726 726 726 727 727 727 727 727 727 728 728 728 729 729 729